FW8904 Weather Reports


time (UTC)temp
C
wind
direction
speed
KPH
gust
KPH
rain 1hr
cm
rain 24hr
cm
rain mn
cm
humidity
%
barometer
mb
20260506182806 16 164 0.0 0.0 0.10 0.10 0.10 90 1009.7
20260506181805 16 155 0.0 0.0 0.05 0.05 0.05 89 1009.8
20260506180804 16 207 0.0 0.0 0.03 0.03 0.03 86 1009.9
20260506175803 17 166 0.0 0.0 0.03 0.03 0.03 85 1010.1
20260506174754 17 159 0.0 0.0 0.00 0.00 0.00 81 1010.0
20260506173755 18 158 0.0 0.0 0.00 0.00 0.00 79 1010.2
20260506172754 19 109 0.0 0.0 0.00 0.00 0.00 76 1010.5
20260506171755 20 236 0.0 3.2 0.00 0.00 0.00 74 1010.3
20260506170754 20 188 0.0 4.8 0.00 0.00 0.00 72 1010.1
20260506165755 21 149 0.0 0.0 0.00 0.00 0.00 70 1010.1
20260506164752 21 158 0.0 1.6 0.00 0.00 0.00 71 1010.1
20260506163753 21 146 0.0 9.7 0.00 0.00 0.00 70 1010.2
20260506162754 21 140 0.0 0.0 0.00 0.00 0.00 70 1010.2
20260506161753 20 185 0.0 0.0 0.00 0.00 0.00 71 1010.3
20260506160753 21 233 0.0 0.0 0.00 0.00 0.00 70 1010.6
20260506155753 21 184 0.0 0.0 0.00 0.00 0.00 70 1010.7
20260506154753 21 205 0.0 0.0 0.00 0.00 0.00 70 1010.7
20260506153753 21 226 0.0 6.4 0.00 0.00 0.00 69 1010.7
20260506152752 21 154 0.0 14.5 0.00 0.00 0.00 69 1010.9
20260506151752 21 258 0.0 0.0 0.00 0.00 0.00 71 1010.9
20260506150747 21 269 0.0 6.4 0.00 0.00 0.00 71 1011.0
20260506145748 21 238 0.0 9.7 0.00 0.00 0.00 70 1011.2
20260506144748 21 214 0.0 0.0 0.00 0.00 0.00 72 1011.1
20260506143746 20 262 0.0 9.7 0.00 0.00 0.00 73 1011.3
20260506142746 20 115 1.6 9.7 0.00 0.00 0.00 75 1011.2
20260506142247 20 103 0.0 11.3 0.00 0.00 0.00 75 1011.3
20260506140748 20 196 0.0 0.0 0.00 0.00 0.00 74 1011.4
20260506140248 20 208 0.0 0.0 0.00 0.00 0.00 76 1011.0
20260506134750 20 185 0.0 0.0 0.00 0.00 0.00 76 1011.1
20260506133741 19 229 0.0 1.6 0.00 0.00 0.00 78 1011.1
20260506132741 19 301 1.6 14.5 0.00 0.00 0.00 78 1011.3
20260506131740 19 180 0.0 0.0 0.00 0.00 0.00 79 1011.2
20260506130738 18 242 3.2 9.7 0.00 0.00 0.00 81 1011.6
20260506125738 18 172 1.6 8.0 0.00 0.00 0.00 82 1011.8
20260506124739 17 168 1.6 9.7 0.00 0.00 0.00 85 1011.7
20260506123738 16 174 0.0 0.0 0.00 0.00 0.00 85 1011.8
20260506122739 16 205 0.0 0.0 0.00 0.00 0.00 86 1011.8
20260506121737 16 193 0.0 0.0 0.00 0.00 0.00 87 1011.8
20260506121241 16 104 0.0 6.4 0.00 0.00 0.00 87 1011.9
20260506115738 16 158 0.0 6.4 0.00 0.00 0.00 87 1011.8
20260506112737 15 150 0.0 0.0 0.00 0.00 0.00 91 1012.0
20260506111735 14 162 0.0 6.4 0.00 0.00 0.00 91 1012.1
20260506110737 14 172 0.0 4.8 0.00 0.00 0.00 92 1012.2
20260506105735 14 135 0.0 0.0 0.00 0.00 0.00 93 1012.1
20260506104733 13 145 0.0 0.0 0.00 0.00 0.00 93 1012.1
20260506103732 13 148 0.0 0.0 0.00 0.00 0.00 93 1011.9
20260506102732 13 117 0.0 0.0 0.00 0.00 0.00 93 1011.8
20260506101731 13 141 0.0 0.0 0.00 0.00 0.00 92 1011.9
20260506100726 13 153 0.0 0.0 0.00 0.00 0.00 92 1011.9
20260506095726 13 155 0.0 0.0 0.00 0.00 0.00 92 1011.9
20260506094726 13 141 0.0 0.0 0.00 0.00 0.00 92 1011.9
20260506093727 13 143 0.0 0.0 0.00 0.00 0.00 91 1011.9
20260506092725 13 151 0.0 0.0 0.00 0.00 0.00 91 1011.8
20260506091726 13 153 0.0 0.0 0.00 0.00 0.00 91 1011.8
20260506090724 13 150 0.0 0.0 0.00 0.00 0.00 90 1012.0
20260506085721 14 141 0.0 0.0 0.00 0.00 0.00 90 1011.9
20260506084720 14 148 0.0 0.0 0.00 0.00 0.00 90 1012.0
20260506083719 14 115 0.0 0.0 0.00 0.00 0.00 90 1012.0
20260506082717 14 167 0.0 0.0 0.00 0.00 0.00 89 1012.1
20260506081715 14 150 0.0 0.0 0.00 0.00 0.00 89 1012.1
20260506080716 14 162 0.0 0.0 0.00 0.00 0.00 88 1012.2
20260506072717 15 166 0.0 0.0 0.00 0.00 0.00 87 1012.1
20260506070717 15 176 0.0 0.0 0.00 0.00 0.00 86 1012.0
20260506061716 15 245 0.0 0.0 0.00 0.00 0.00 84 1011.9
20260506060717 15 167 0.0 0.0 0.00 0.00 0.00 83 1011.9
20260506051214 16 180 0.0 0.0 0.00 0.00 0.00 80 1012.3
20260506044714 16 123 0.0 0.0 0.00 0.00 0.00 79 1012.4
20260506043713 16 134 0.0 0.0 0.00 0.00 0.00 78 1012.4
20260506042714 16 138 0.0 0.0 0.00 0.00 0.00 77 1012.3
20260506041713 16 142 0.0 0.0 0.00 0.00 0.00 76 1012.4
20260506040713 16 158 0.0 0.0 0.00 0.00 0.00 76 1012.3
20260506035713 16 267 0.0 3.2 0.00 0.00 0.00 75 1012.4
20260506034713 16 163 0.0 0.0 0.00 0.00 0.00 75 1012.4
20260506033712 16 229 0.0 0.0 0.00 0.00 0.00 75 1012.3
20260506032712 16 170 0.0 0.0 0.00 0.00 0.00 75 1012.3
20260506032214 16 231 0.0 0.0 0.00 0.00 0.00 75 1012.0
20260506030712 16 220 0.0 0.0 0.00 0.00 0.00 76 1012.2
20260506025716 16 233 0.0 0.0 0.00 0.00 0.00 76 1012.1
20260506024710 16 160 0.0 0.0 0.00 0.00 0.00 76 1012.3
20260506023709 16 235 0.0 0.0 0.00 0.00 0.00 75 1012.1
20260506022709 16 195 0.0 0.0 0.00 0.00 0.00 75 1012.2
20260506021708 16 244 0.0 0.0 0.00 0.00 0.00 75 1012.2
20260506020705 16 202 0.0 0.0 0.00 0.00 0.00 75 1012.2
20260506015706 16 108 0.0 0.0 0.00 0.00 0.00 74 1012.2
20260506014709 16 160 0.0 0.0 0.00 0.00 0.00 73 1012.2
20260506013707 16 143 0.0 6.4 0.00 0.00 0.00 73 1012.2
20260506012702 16 148 0.0 0.0 0.00 0.00 0.00 72 1011.9
20260506011701 17 231 0.0 0.0 0.00 0.00 0.00 72 1011.9
20260506010701 17 160 0.0 0.0 0.00 0.00 0.00 71 1011.8
20260506005700 17 143 0.0 0.0 0.00 0.00 0.00 71 1011.7
20260506004701 17 174 0.0 0.0 0.00 0.00 0.00 71 1011.6
20260506003701 17 143 0.0 0.0 0.00 0.00 0.00 70 1011.5
20260506003202 17 222 0.0 0.0 0.00 0.00 0.00 69 1011.3
20260506001700 18 236 0.0 0.0 0.00 0.00 0.00 69 1011.2
20260506000700 18 197 0.0 0.0 0.00 0.00 0.00 68 1011.1
20260505235700 18 219 0.0 0.0 0.00 0.00 0.00 67 1010.9
20260505234659 19 174 0.0 0.0 0.00 0.00 0.00 66 1010.8
20260505234201 19 241 0.0 0.0 0.00 0.00 0.00 65 1010.6
20260505232701 20 149 0.0 0.0 0.00 0.00 0.00 64 1010.4
20260505231700 20 158 0.0 3.2 0.00 0.00 0.00 62 1010.4
20260505230700 20 193 0.0 0.0 0.00 0.00 0.00 61 1010.2
20260505225659 21 272 0.0 9.7 0.00 0.00 0.00 61 1010.2
20260505225205 21 224 0.0 6.4 0.00 0.00 0.00 60 1010.0
20260505223701 21 220 0.0 3.2 0.00 0.00 0.00 58 1009.7
20260505223200 22 123 0.0 0.0 0.00 0.00 0.00 57 1009.5
20260505222158 22 201 0.0 8.0 0.00 0.00 0.00 57 1009.4
20260505220657 22 229 0.0 0.0 0.00 0.00 0.00 56 1009.5
20260505215701 22 152 0.0 4.8 0.00 0.00 0.00 55 1009.6
20260505214657 22 239 0.0 0.0 0.00 0.00 0.00 56 1009.6
20260505213658 23 208 0.0 1.6 0.00 0.00 0.00 55 1009.6
20260505212653 23 208 0.0 3.2 0.00 0.00 0.00 56 1009.7
20260505211652 23 245 0.0 1.6 0.00 0.00 0.00 54 1009.5
20260505210652 24 113 0.0 0.0 0.00 0.00 0.00 53 1009.2
20260505205652 24 184 0.0 0.0 0.00 0.00 0.00 53 1009.2
20260505204652 25 138 0.0 8.0 0.00 0.00 0.00 53 1009.5
20260505203653 25 120 0.0 0.0 0.00 0.00 0.00 54 1009.5
20260505202651 25 142 0.0 1.6 0.00 0.00 0.00 53 1009.5
20260505201652 25 139 0.0 1.6 0.00 0.00 0.00 52 1009.2
20260505201159 25 179 0.0 0.0 0.00 0.00 0.00 50 1009.2
20260505195646 26 131 1.6 16.1 0.00 0.00 0.00 49 1009.5
20260505194646 26 214 0.0 14.5 0.00 0.00 0.00 49 1009.0
20260505194147 26 140 0.0 1.6 0.00 0.00 0.00 47 1009.4
20260505192646 26 133 0.0 9.7 0.00 0.00 0.00 47 1009.0
20260505192148 26 245 1.6 14.5 0.00 0.00 0.00 45 1009.2
20260505190645 27 112 0.0 22.5 0.00 0.00 0.00 44 1009.5
20260505185645 27 204 0.0 3.2 0.00 0.00 0.00 46 1009.5
20260505185147 27 97 0.0 0.0 0.00 0.00 0.00 48 1009.6
20260505183647 27 168 0.0 0.0 0.00 0.00 0.00 46 1009.5